30.06.2024;15:00;2
30.06.2024;14:00;2
30.06.2024;13:00;2
30.06.2024;12:00;3
30.06.2024;11:00;4
30.06.2024;10:00;6
30.06.2024;09:00;9
30.06.2024;08:00;9
30.06.2024;07:00;7
30.06.2024;06:00;5
30.06.2024;05:00;6
30.06.2024;04:00;13
30.06.2024;03:00;15
30.06.2024;02:00;14
30.06.2024;01:00;12
30.06.2024;00:00;12
29.06.2024;23:00;14
29.06.2024;22:00;12
29.06.2024;21:00;14
29.06.2024;20:00;15
29.06.2024;19:00;13
29.06.2024;18:00;11
29.06.2024;17:00;11
29.06.2024;16:00;12
29.06.2024;15:00;12
29.06.2024;14:00;12
29.06.2024;13:00;11
29.06.2024;12:00;10
29.06.2024;11:00;9
29.06.2024;10:00;13
29.06.2024;09:00;16
29.06.2024;08:00;19
29.06.2024;07:00;18
29.06.2024;06:00;19
29.06.2024;05:00;21
29.06.2024;04:00;19
29.06.2024;03:00;16
29.06.2024;02:00;14
29.06.2024;01:00;15
29.06.2024;00:00;18
28.06.2024;23:00;19
28.06.2024;22:00;16
28.06.2024;21:00;14
28.06.2024;20:00;11
28.06.2024;19:00;9
28.06.2024;18:00;9
28.06.2024;17:00;11
28.06.2024;16:00;12
